Wind_Speed
17 16 16 14 13 12 12 12 12 13 13 12 10 10 10 12 13 12 12 11 10 9 9 9 11 12 12 10 7 5 3 1 1 1 3 4 6 7 8 9 10 11 12 12 13 14 14 15 15 15 15 15 15 15 16 16 15 14 15 16 19 20 20 22 24 25 25 27 28 29 30 32 33 35 34 32 31 30 26 24 22 21 22 20 17
18 17 17 16 15 15 14 13 12 11 10 10 10 10 11 13 15 14 14 12 10 9 10 11 11 12 11 9 7 4 2 1 2 3 5 6 7 8 9 10 12 14 14 15 15 15 15 16 17 17 17 17 16 17 17 18 18 17 16 16 17 19 20 22 23 24 24 24 25 27 30 31 33 34 33 31 29 29 26 24 22 21 21 21 19
18 18 17 16 16 15 15 15 14 12 11 10 10 11 12 14 15 15 15 14 11 10 11 11 11 11 10 8 6 3 2 2 4 6 7 9 9 10 11 12 14 16 17 17 16 15 17 18 19 19 19 19 18 18 19 19 19 19 18 17 17 18 21 23 24 24 23 23 25 27 28 30 32 32 32 29 28 28 27 25 23 21 21 22 19
19 18 17 16 15 15 16 17 15 13 11 10 10 11 12 14 14 14 15 14 12 12 12 12 12 11 9 7 5 4 3 4 6 8 10 11 12 12 13 14 16 17 18 17 16 16 18 19 20 20 19 20 20 20 20 21 21 21 20 20 19 19 20 23 25 25 24 23 25 26 27 29 32 31 29 28 28 28 28 26 24 23 23 21 20
19 17 16 15 14 15 18 18 16 14 11 10 10 11 13 13 13 13 14 13 13 13 13 13 12 11 9 7 6 5 5 6 8 10 12 13 14 15 15 16 17 18 17 15 16 17 18 19 20 21 20 21 22 22 22 22 22 22 22 22 22 21 21 23 25 27 25 24 25 26 27 29 30 28 26 26 27 28 28 27 26 26 25 21 20
19 16 15 14 14 16 19 19 18 15 13 12 12 12 13 13 13 13 13 13 13 13 13 13 12 11 9 8 7 7 7 8 10 12 14 16 16 17 17 18 18 17 15 15 15 15 16 18 20 21 21 22 24 24 23 23 24 24 25 25 24 23 24 24 25 26 26 26 27 26 26 28 28 27 25 25 26 27 28 29 29 28 26 22 21
21 18 15 15 15 17 19 21 20 17 16 14 12 12 12 12 13 12 12 12 12 12 12 12 12 11 9 8 8 9 9 11 12 14 16 18 18 18 19 19 18 17 15 15 15 15 17 19 20 21 22 23 24 25 25 25 26 27 28 28 28 26 26 25 25 25 25 27 28 26 25 26 28 28 26 24 25 27 28 28 28 27 25 22 22
23 19 17 16 16 18 20 21 21 19 18 16 13 13 12 12 12 12 11 11 11 11 11 11 10 10 9 9 9 10 11 13 15 16 17 19 20 20 20 19 19 18 17 16 16 17 19 20 21 21 22 22 24 25 26 27 27 28 29 30 31 30 29 28 26 25 25 26 27 27 26 26 27 29 27 25 26 28 27 26 25 24 24 22 22
23 19 18 18 18 20 21 22 22 20 19 17 15 13 12 12 11 11 10 10 10 10 10 10 9 9 9 9 10 11 13 14 16 17 18 20 21 21 19 19 19 19 18 18 18 19 20 21 22 22 22 23 25 26 27 28 28 28 30 31 32 32 31 30 28 27 25 25 25 26 26 24 26 29 29 27 27 28 27 25 23 23 23 22 22
24 21 21 21 21 24 25 24 23 21 20 18 16 15 13 13 11 10 10 9 9 10 10 10 9 9 10 10 11 13 14 15 16 17 18 20 21 21 19 19 21 21 19 19 19 20 22 22 23 23 24 24 26 27 28 29 29 30 30 31 32 32 32 31 30 29 28 27 25 25 25 24 26 30 31 29 28 27 27 25 24 24 23 21 21
26 24 25 26 26 28 28 27 26 23 20 19 18 17 15 13 11 10 10 10 10 10 10 10 10 10 11 12 12 13 15 15 16 17 18 19 20 21 21 21 22 22 21 20 21 22 22 23 24 25 26 26 27 28 29 29 30 31 31 31 31 32 32 32 31 31 31 30 27 25 25 25 28 31 33 32 30 28 27 26 25 24 22 21 22
29 28 29 27 25 23 21 21 22 22 20 19 18 18 16 13 12 12 12 12 11 11 11 12 11 12 12 13 13 14 15 15 16 17 17 18 20 21 23 23 24 24 23 22 22 22 23 24 26 27 28 29 29 30 30 30 31 32 33 32 32 32 32 32 32 31 30 30 28 26 26 26 30 33 34 33 30 28 27 27 26 25 23 22 22
33 32 30 27 23 19 18 18 17 18 16 15 15 17 17 15 14 14 14 13 12 12 13 13 13 13 13 13 13 13 14 15 15 16 17 19 20 21 23 24 25 25 25 24 23 23 24 25 27 29 30 31 32 32 32 32 32 34 35 34 33 32 32 31 31 30 28 27 27 26 27 28 30 31 32 32 30 29 28 28 27 26 24 23 22
35 33 29 27 23 20 20 20 18 16 14 13 13 16 18 18 18 17 15 14 14 14 14 14 14 13 13 12 12 13 14 15 16 17 18 20 21 21 23 24 25 26 26 25 25 24 24 26 28 30 32 33 33 33 33 33 34 35 36 36 35 33 32 30 29 27 26 25 25 26 27 28 29 30 30 31 30 30 29 29 28 27 27 26 23
36 33 29 27 25 22 21 20 18 16 15 13 13 14 18 20 20 19 17 16 16 15 15 15 14 12 12 12 12 13 15 16 17 18 20 21 21 21 22 23 24 25 25 26 25 25 25 27 28 30 32 33 33 32 33 33 33 34 35 35 35 33 31 29 26 24 23 23 25 25 26 28 29 29 29 29 30 30 29 28 29 28 28 27 24
36 33 29 26 25 24 23 21 19 18 16 14 14 15 18 21 21 20 19 17 17 17 16 15 13 11 11 11 12 14 16 17 18 19 21 22 22 21 21 22 23 24 25 26 26 26 27 27 29 30 32 32 32 31 31 29 29 29 29 28 28 29 28 26 23 22 21 22 23 24 24 25 25 26 26 26 28 28 28 29 29 28 28 26 25
36 35 32 27 24 23 21 21 20 18 17 16 16 16 18 19 19 20 19 18 17 17 16 13 11 10 11 12 13 15 17 18 19 20 21 22 21 21 21 22 23 24 25 26 26 26 27 28 29 30 31 30 30 29 27 25 24 24 22 21 21 23 23 22 20 20 20 20 21 20 20 20 22 25 24 25 26 26 28 29 29 28 28 27 25
37 35 32 28 26 23 21 20 20 19 19 18 17 16 16 16 17 18 19 17 16 16 14 11 10 10 11 12 14 16 18 19 20 21 21 21 21 21 21 22 23 24 25 26 26 26 27 28 29 30 29 29 28 26 24 23 22 20 17 15 16 18 19 18 18 18 18 18 19 18 17 16 20 26 25 24 25 25 27 29 29 28 28 27 26
37 36 32 28 28 26 22 20 21 20 19 19 18 16 15 17 18 18 17 16 16 14 12 10 10 11 12 13 15 17 19 20 21 21 20 19 20 20 21 22 23 24 25 26 26 26 27 27 28 28 28 26 25 23 22 21 20 17 14 13 14 16 17 16 16 17 17 17 17 17 15 13 16 23 25 24 23 24 27 29 29 29 29 28 27
39 36 33 30 28 26 23 23 23 22 21 21 19 17 17 19 19 18 16 15 14 12 10 10 11 11 13 14 16 18 19 20 20 19 18 19 19 20 20 21 22 24 25 26 26 26 26 26 26 27 26 24 22 20 20 19 18 16 13 12 14 16 17 16 16 16 16 17 17 16 14 13 14 17 21 23 21 22 25 28 29 30 30 29 28
40 35 32 32 31 28 27 27 26 24 24 23 20 19 20 20 19 18 16 14 12 11 10 10 10 12 14 15 17 19 20 19 18 17 18 18 19 19 19 20 22 23 24 25 25 26 26 25 25 26 24 22 20 18 18 18 17 15 13 13 14 16 17 18 18 18 17 17 18 17 14 14 15 16 18 21 22 22 24 25 26 28 29 29 27
39 37 35 35 34 32 30 28 27 25 24 23 21 22 22 20 18 16 14 13 11 10 9 9 10 13 15 16 18 19 18 17 16 16 17 18 18 18 19 20 21 22 24 25 25 25 25 24 25 25 23 20 18 17 16 16 16 15 14 14 15 16 18 18 18 19 19 19 19 18 16 16 16 17 19 21 22 23 24 24 25 26 27 28 28
39 38 37 36 36 33 30 28 27 25 23 22 22 22 20 17 15 13 13 11 9 9 9 10 11 14 16 17 17 17 16 15 15 15 16 16 17 18 19 20 21 23 24 25 26 25 24 24 23 23 21 19 17 16 15 15 14 14 14 15 15 16 17 18 18 19 19 19 18 18 18 18 17 18 20 22 23 24 25 26 25 25 26 28 27
40 39 39 37 36 33 28 28 27 24 21 20 20 19 17 15 14 13 12 10 9 10 10 11 12 14 15 16 16 16 15 14 14 14 15 16 17 18 20 21 22 23 24 25 25 25 24 23 22 22 20 18 17 16 15 14 13 13 13 14 15 16 16 17 17 18 17 17 17 18 18 19 19 19 19 22 24 25 26 27 27 26 27 27 25
41 40 39 37 35 30 28 28 27 23 19 18 17 17 16 15 14 13 12 11 10 11 11 12 13 14 14 14 14 14 12 12 13 13 15 16 17 19 20 22 23 23 24 25 25 25 24 23 21 20 19 18 17 15 14 14 14 13 13 14 14 15 16 15 15 15 15 15 16 17 18 19 19 18 18 20 23 24 26 27 27 27 27 25 23
41 39 37 35 31 28 28 28 25 21 18 18 17 17 16 15 14 13 12 11 11 11 11 12 12 13 13 13 12 11 11 11 12 13 15 16 18 19 21 22 23 23 24 25 25 25 24 22 20 19 18 17 16 15 14 13 13 13 13 13 14 14 14 14 14 14 14 15 15 16 17 18 19 18 18 19 22 24 24 24 25 25 25 24 23
39 36 33 30 27 26 27 27 24 20 20 19 18 17 15 15 14 13 13 12 11 11 11 11 11 11 12 11 10 10 10 11 12 13 15 16 18 19 21 22 22 23 24 24 25 25 24 22 19 18 17 16 15 13 12 13 12 12 13 13 13 13 13 13 13 13 14 14 15 16 17 18 18 18 18 19 20 22 21 21 21 22 22 23 23
35 32 29 27 25 26 27 26 22 21 21 20 18 17 16 15 15 13 12 11 11 10 10 9 10 10 10 10 9 9 10 11 12 14 15 17 18 19 20 21 22 23 24 24 24 24 23 21 18 17 15 14 13 12 11 12 12 12 12 13 13 13 13 14 14 14 13 14 15 16 17 17 18 18 17 17 19 20 20 20 21 22 23 24 24
32 28 26 26 26 27 27 25 23 22 21 20 18 17 16 15 14 13 12 11 10 9 9 8 9 9 10 10 10 10 11 12 13 14 16 17 18 19 20 21 22 23 24 24 24 24 22 20 17 15 14 12 12 11 11 12 12 12 12 11 11 12 12 13 13 13 13 14 15 15 15 15 17 17 17 18 19 20 21 21 22 22 23 24 25
28 27 26 26 27 28 26 25 24 22 21 20 18 18 17 15 13 12 11 10 9 9 8 8 8 9 10 10 10 11 12 13 14 15 16 17 18 19 19 20 22 23 24 24 24 23 22 19 16 14 12 10 10 10 10 11 12 12 11 11 11 12 11 11 10 11 12 13 14 14 14 14 15 15 17 18 19 20 21 23 23 22 22 23 24
25 25 27 26 27 27 26 24 23 22 20 19 18 17 16 14 13 12 11 9 9 9 8 8 8 9 10 11 11 12 13 14 15 15 16 18 18 19 19 20 22 23 24 24 23 22 21 17 15 13 10 9 9 10 10 10 10 11 10 10 11 12 12 11 10 10 11 12 13 14 14 15 15 15 17 18 18 18 19 22 22 22 22 23 24
23 25 25 24 25 26 24 22 21 20 18 17 17 16 15 14 14 12 11 10 10 9 9 9 9 10 10 11 12 13 14 15 16 16 17 18 18 19 19 20 21 22 23 24 23 21 19 16 13 11 9 7 8 9 9 9 9 9 9 9 10 12 13 13 12 12 12 12 12 13 14 14 13 14 16 18 18 18 18 19 20 21 22 24 25
21 22 21 21 24 23 20 20 19 18 17 16 15 14 14 14 14 13 12 11 10 10 10 10 10 11 11 12 13 14 15 16 16 16 17 18 18 19 19 20 20 21 22 23 22 20 17 14 11 9 8 7 6 7 9 9 9 9 9 9 10 12 13 13 12 12 11 10 10 11 12 12 12 13 14 15 17 18 18 19 20 21 21 22 24
19 22 21 20 21 20 18 18 16 16 15 14 12 12 12 13 13 13 12 12 11 11 11 11 11 12 12 13 13 14 15 16 16 17 17 18 18 18 19 19 19 20 20 20 20 18 15 12 10 9 9 9 6 6 7 7 8 9 9 9 10 12 13 14 13 12 11 10 10 10 11 11 12 13 14 14 14 15 17 19 20 21 21 21 21
20 22 20 18 19 19 17 16 14 15 14 11 10 11 12 13 13 13 13 12 11 11 12 12 12 12 12 13 13 14 15 15 16 16 17 17 17 17 18 18 18 18 17 16 16 16 14 11 8 5 6 8 8 6 5 6 7 8 9 8 8 9 11 12 13 13 12 11 11 11 11 12 12 14 14 14 14 15 17 18 18 19 20 20 19
17 18 17 19 21 18 16 14 14 13 12 10 11 12 11 12 12 12 12 11 10 11 12 13 12 12 12 13 13 14 15 15 15 16 16 15 15 16 17 17 16 16 16 15 13 12 12 10 7 2 1 5 6 4 4 7 9 10 11 9 8 8 9 10 11 11 9 9 11 11 11 11 12 13 14 15 14 14 16 17 17 18 19 19 18
17 18 20 23 22 18 16 14 13 11 9 10 11 11 11 11 11 11 11 10 10 11 13 13 13 12 12 13 14 14 14 14 14 14 14 13 14 14 15 15 15 15 15 14 12 9 8 7 5 2 2 3 3 3 5 9 11 12 11 10 9 8 9 9 9 7 4 4 7 8 9 10 11 10 11 12 12 11 13 13 13 14 16 17 16
19 21 22 22 19 17 14 12 9 8 9 10 10 10 9 9 8 8 9 9 10 11 12 13 12 12 12 13 13 14 14 14 13 12 11 11 12 13 13 13 13 13 13 12 10 8 7 6 6 7 7 7 8 9 10 10 10 10 10 9 8 8 9 8 7 3 3 6 9 7 7 8 6 4 5 7 9 10 9 10 12 12 12 13 13
18 18 19 18 15 13 11 9 8 8 9 9 9 7 7 6 6 7 7 8 9 10 11 11 11 11 11 11 12 13 13 12 11 9 9 9 9 10 10 11 11 11 11 10 9 8 7 7 8 9 10 10 10 11 9 6 7 9 9 9 9 10 8 7 6 6 6 7 8 7 4 3 1 1 0 2 4 3 3 3 4 6 6 8 8
20 19 18 15 12 11 10 9 8 8 8 7 6 4 4 4 4 6 6 7 8 8 9 9 9 10 10 10 11 11 11 10 9 8 8 8 7 7 8 9 9 9 9 9 9 9 8 7 7 7 7 8 8 8 6 6 7 8 9 9 10 9 8 6 7 8 7 6 7 7 5 4 4 2 2 3 2 1 4 6 4 2 1 4 3
20 19 16 14 13 12 10 9 8 7 6 5 4 3 3 4 5 6 6 7 7 7 7 8 8 9 9 9 10 10 9 9 8 7 7 6 5 6 7 7 8 8 9 9 9 9 8 7 6 7 7 7 7 7 6 7 8 8 8 9 9 8 7 7 8 8 7 6 6 7 6 5 5 4 4 5 4 2 2 2 1 2 1 3 5
20 18 16 15 13 11 9 8 7 6 5 4 4 4 4 5 6 6 6 6 6 6 6 7 7 8 8 9 9 9 8 7 7 6 5 5 5 5 6 7 7 8 9 9 8 8 7 6 6 7 6 6 6 6 7 8 8 8 9 9 9 8 9 9 8 7 6 5 4 5 4 5 5 6 6 6 5 4 5 4 4 3 2 1 3
20 18 18 16 12 10 9 8 7 6 6 6 5 5 5 5 5 5 5 5 5 5 5 5 6 7 8 8 8 8 7 7 6 5 4 4 4 5 6 7 8 8 9 8 7 6 6 5 6 6 6 6 6 7 7 8 8 8 9 8 8 8 9 9 9 7 6 4 3 2 3 4 4 5 5 5 6 6 7 7 6 6 5 5 6
21 19 18 16 12 10 10 10 9 9 8 7 7 6 5 4 4 3 3 3 3 3 4 5 6 6 7 7 6 6 6 5 4 4 3 4 4 6 7 8 8 8 8 7 6 6 5 6 6 6 6 7 7 7 7 7 7 7 7 6 7 7 7 7 7 7 6 5 4 4 4 4 4 4 4 5 6 7 8 8 8 8 9 9 9
20 18 17 16 14 13 12 11 11 10 9 8 7 6 4 4 3 2 1 1 2 2 2 3 4 4 4 4 4 4 4 3 3 3 3 3 4 4 5 5 5 5 5 5 4 4 4 4 4 4 4 4 5 5 6 6 6 5 5 5 6 6 6 7 7 6 6 6 6 6 6 6 6 6 6 5 6 7 8 8 8 9 10 11 11
19 18 17 16 16 15 13 11 11 10 9 9 7 5 4 4 2 0 1 2 2 2 2 1 1 2 2 2 3 2 2 1 0 1 0 1 1 2 3 4 4 4 4 4 3 3 2 2 2 3 3 3 3 4 4 5 5 5 5 6 6 6 6 7 7 7 7 8 8 9 9 9 9 9 9 8 8 8 8 8 9 9 10 11 11
19 19 17 15 15 14 12 10 10 9 9 8 6 4 4 3 1 1 2 2 2 1 0 0 1 1 2 2 3 2 1 1 2 2 2 3 3 2 3 3 4 4 3 3 3 4 3 3 3 3 3 3 4 4 5 5 5 6 6 7 8 8 9 9 9 9 10 11 11 11 10 10 10 10 10 10 10 10 10 10 10 10 10 11 11
19 20 18 15 14 13 11 9 8 8 8 6 5 3 3 2 1 1 1 0 1 1 0 1 1 2 2 2 2 2 2 2 3 3 3 3 3 2 3 3 3 3 3 3 4 5 4 3 3 3 4 6 6 6 5 5 6 8 10 10 11 11 11 9 9 11 14 14 14 14 13 12 11 11 11 11 11 11 11 11 11 11 11 11 11
20 20 17 14 12 10 9 7 7 6 5 4 3 3 3 2 1 1 1 1 1 1 2 2 2 2 2 3 3 3 4 4 4 4 4 4 3 2 3 3 3 3 3 4 5 4 3 4 5 7 7 8 6 5 6 9 11 12 13 13 12 12 12 11 12 15 18 17 16 15 14 14 13 13 13 13 12 12 13 13 13 13 13 13 13
20 18 14 11 9 7 6 6 5 5 4 4 4 4 2 1 1 1 1 1 2 3 3 3 3 3 3 4 5 4 4 4 3 3 4 3 3 3 3 4 4 3 3 4 5 4 4 6 9 9 9 8 8 9 12 14 14 14 14 14 14 14 14 14 16 19 19 16 15 15 14 14 14 14 13 13 13 13 13 13 13 13 13 13 13
19 16 12 10 8 7 5 4 4 5 5 5 5 4 1 0 0 1 3 4 4 5 4 4 4 4 4 4 4 4 3 3 3 3 3 2 2 3 4 4 3 3 3 5 6 7 8 10 10 10 10 10 11 13 14 14 13 13 13 13 14 14 14 15 17 18 16 14 14 15 15 15 15 15 15 15 15 14 14 14 13 13 13 13 14
Wind_Direction
213 214 215 212 210 207 205 209 211 210 205 201 201 198 192 184 175 168 164 161 159 158 156 151 143 139 138 140 144 143 135 122 52 334 318 312 309 310 315 324 329 323 311 306 309 313 315 315 315 311 307 302 297 294 293 293 292 288 284 279 278 278 275 273 271 265 260 262 260 256 256 257 258 259 259 261 259 256 258 255 255 260 257 256 261
214 217 217 213 210 206 202 200 201 202 199 195 191 188 183 178 172 167 163 162 164 163 159 153 148 145 146 151 159 164 175 305 316 307 299 296 299 306 314 324 324 314 306 305 306 309 310 308 305 302 299 296 292 291 291 293 293 290 287 284 280 278 275 274 272 267 262 262 261 258 258 258 257 256 256 257 254 251 252 251 251 255 255 254 257
213 215 215 212 209 208 202 191 188 190 191 190 186 181 177 176 174 169 165 163 163 163 160 157 155 156 159 166 175 189 228 288 300 297 295 294 299 308 317 323 320 310 306 304 301 302 304 301 296 292 291 288 284 284 286 289 291 291 291 288 283 277 274 273 271 265 261 259 257 257 259 261 259 257 255 253 250 248 249 248 249 253 258 257 255
215 212 212 209 204 205 200 190 188 189 187 185 181 177 175 177 177 173 167 164 162 164 164 163 165 170 177 185 201 222 245 269 282 289 293 296 302 311 317 319 316 309 306 303 296 295 296 292 289 286 283 281 280 281 282 283 284 287 290 289 285 280 274 271 268 263 259 256 256 258 259 261 260 258 256 254 249 247 247 247 248 253 259 256 254
223 217 213 208 200 200 198 192 191 188 184 182 178 175 176 177 178 174 169 165 166 168 169 172 178 185 196 208 225 240 254 268 278 288 294 298 304 311 313 313 312 308 306 301 292 288 287 286 286 284 280 280 281 282 282 281 280 281 283 282 280 280 276 271 268 266 264 259 258 259 259 261 261 261 259 253 247 246 246 246 248 254 257 252 250
224 221 216 208 200 200 198 194 193 190 187 186 181 176 177 178 177 176 173 171 173 175 177 184 192 201 213 227 242 254 264 275 284 292 296 299 303 307 308 309 308 306 305 301 292 284 282 284 286 285 283 282 282 282 281 280 279 278 277 277 276 276 275 273 271 270 268 263 260 259 260 261 260 259 257 249 243 244 244 244 248 252 251 246 245
215 214 212 208 201 200 201 200 199 195 192 192 187 180 179 180 180 180 180 181 184 186 189 194 203 213 225 240 253 266 276 284 290 294 296 297 300 302 303 305 305 305 306 301 292 284 281 282 285 286 285 283 280 279 278 276 275 276 276 276 275 273 272 271 272 272 270 265 263 260 259 261 259 255 251 246 241 242 243 245 248 247 245 241 239
213 211 211 210 203 200 202 203 203 200 196 194 192 187 186 185 186 189 191 193 197 199 203 207 215 226 236 250 261 273 282 287 291 294 295 296 298 299 301 304 304 305 306 301 295 290 286 285 286 287 286 283 280 280 279 276 273 272 273 273 273 272 271 269 268 270 269 267 265 263 260 260 260 254 247 243 242 242 242 243 243 240 240 239 234
214 214 218 220 211 203 203 204 204 202 197 194 195 194 193 192 193 199 203 207 212 215 223 227 233 243 253 265 274 281 285 288 291 294 296 296 297 299 302 306 305 305 306 302 298 295 291 290 289 288 287 284 283 282 282 280 277 273 271 271 271 269 269 268 267 267 269 269 267 265 262 260 259 253 245 241 240 240 239 239 240 239 240 235 230
214 215 221 225 217 207 202 201 202 203 200 198 202 204 203 201 201 209 217 223 227 232 241 248 256 265 272 280 285 289 291 294 296 296 296 297 298 301 306 308 306 306 306 303 299 295 293 292 290 288 287 285 284 282 281 280 278 275 272 271 270 269 268 267 268 269 269 269 267 265 263 259 257 253 245 241 238 237 238 236 237 239 239 236 233
213 215 220 222 216 207 199 195 193 195 202 208 212 218 219 216 214 223 233 240 245 250 259 267 275 279 284 290 293 295 298 299 300 298 299 300 302 305 308 308 307 307 306 303 299 295 293 293 292 291 290 288 286 282 279 278 277 276 273 272 271 270 268 266 266 269 269 269 269 268 267 265 262 254 244 240 238 236 238 238 238 240 239 237 234
213 216 220 218 215 214 209 204 194 187 200 217 224 229 230 228 230 236 242 249 255 261 269 275 281 286 292 299 301 302 301 302 301 301 303 305 306 307 308 308 308 309 307 304 300 297 297 297 296 296 295 293 290 287 284 281 279 277 275 273 271 269 269 268 265 265 267 270 270 268 269 272 273 261 242 235 235 234 236 238 239 242 240 236 233
213 217 220 216 215 221 224 224 209 192 203 228 237 237 235 235 240 243 247 253 259 264 271 278 284 291 298 303 305 303 302 302 302 303 304 305 305 306 307 308 308 309 307 305 302 301 301 300 300 301 300 298 296 293 289 285 282 279 276 274 271 268 267 267 265 263 264 268 268 267 270 272 274 264 241 229 230 230 230 231 232 235 235 233 231
213 217 219 217 215 219 221 218 212 208 219 240 249 244 239 240 244 247 251 255 260 265 272 280 286 292 299 302 303 303 302 302 302 303 303 302 304 305 306 307 306 305 304 303 303 303 303 303 304 305 304 303 300 297 294 289 284 280 276 273 270 267 264 262 263 264 264 265 264 265 271 271 270 260 239 228 228 227 226 226 227 228 228 229 229
214 216 217 219 216 217 220 217 218 228 237 246 255 251 242 241 246 250 254 257 261 266 272 279 286 291 296 299 302 303 303 303 302 302 302 303 304 305 306 305 303 302 300 301 303 305 306 306 307 308 307 306 304 301 298 293 288 282 278 273 269 264 260 258 260 262 261 263 263 263 271 275 266 250 234 227 226 224 225 225 223 224 225 227 229
213 216 216 218 220 220 220 220 229 243 249 248 254 255 246 244 246 250 255 258 260 265 272 279 285 289 292 297 301 301 301 302 302 303 304 305 306 305 305 304 302 300 300 302 305 307 307 308 310 312 311 310 309 307 302 297 291 286 282 276 267 258 254 256 257 258 259 261 261 262 275 279 258 235 228 228 224 221 222 222 219 220 224 227 230
211 215 216 217 222 223 224 227 232 243 253 256 258 257 251 247 247 251 256 257 260 267 274 279 281 285 291 297 299 300 301 302 303 305 306 306 306 306 305 303 301 301 301 303 306 307 309 312 314 316 314 313 314 311 308 303 298 293 288 277 263 252 250 253 255 257 258 258 258 263 278 275 244 226 226 227 223 221 219 218 217 217 222 227 229
212 213 214 216 219 221 226 233 236 242 254 263 265 262 258 252 248 251 256 258 262 269 273 274 275 282 291 296 299 300 302 303 305 308 308 306 305 303 303 303 302 303 304 305 307 310 313 316 318 318 316 316 317 315 312 309 304 299 293 276 261 253 251 254 256 255 255 253 254 262 276 272 240 225 225 227 225 222 218 216 218 220 224 227 228
213 211 210 216 223 225 222 226 239 250 257 264 268 267 267 260 251 251 256 258 261 265 266 266 271 282 291 296 299 300 302 304 307 309 306 302 300 300 302 304 305 305 306 308 311 315 318 319 320 319 316 316 318 315 312 310 305 301 295 276 261 254 252 255 254 250 249 245 247 256 265 265 247 227 222 227 228 225 221 219 219 220 224 226 225
213 210 210 215 222 224 219 222 237 248 254 262 266 266 267 264 256 253 255 256 256 256 257 264 275 287 294 296 298 300 302 305 307 306 302 299 300 303 306 307 307 308 309 311 315 318 320 321 322 319 316 316 317 312 308 307 303 300 295 278 263 256 252 254 252 249 250 245 243 251 253 249 248 233 223 225 229 228 228 226 222 219 220 223 224
213 209 210 215 218 222 224 230 238 242 249 258 262 264 266 263 257 254 252 249 247 248 255 269 282 289 292 293 295 298 302 304 304 302 300 301 303 306 307 308 309 309 311 314 317 320 321 322 323 321 316 315 316 311 306 305 301 298 294 284 272 264 258 258 257 254 256 251 244 246 247 241 240 239 231 228 226 228 232 233 228 221 218 219 222
213 211 213 217 220 224 230 238 243 246 251 256 260 264 264 258 252 249 246 241 241 248 259 272 282 286 288 291 295 298 301 302 300 299 299 301 303 306 308 309 310 312 314 316 318 320 322 323 326 324 318 314 315 311 306 305 302 297 293 285 275 270 265 261 260 258 256 254 248 244 245 244 239 238 239 235 231 232 237 238 233 227 221 219 221
213 214 215 218 221 226 233 241 246 250 253 258 263 261 253 245 240 234 231 233 238 247 259 271 280 284 287 291 296 298 299 298 297 297 299 302 304 307 309 310 312 314 314 315 317 319 322 324 327 327 320 314 313 309 305 305 305 300 295 286 276 272 267 260 260 261 256 253 250 246 244 245 245 241 240 239 236 235 238 239 235 230 224 220 222
213 215 217 220 224 228 235 243 247 253 257 260 258 247 234 226 221 218 221 228 235 244 258 272 280 283 287 293 297 296 295 294 295 298 300 304 307 309 311 312 314 314 313 313 316 318 321 325 328 328 323 315 312 310 305 303 303 302 299 292 282 275 270 265 265 266 261 251 246 244 243 244 246 244 240 239 239 237 238 239 237 233 227 223 224
215 217 220 224 228 231 237 244 251 257 257 251 241 228 217 211 210 213 219 227 234 245 260 273 279 284 290 296 296 292 291 292 295 300 302 306 309 311 313 313 313 313 313 314 316 318 321 325 328 329 324 316 312 313 310 302 300 303 303 296 287 280 276 274 270 267 262 253 244 241 241 242 244 243 241 240 241 242 242 241 238 235 230 227 228
219 222 225 230 234 237 242 248 254 254 243 232 224 215 207 205 208 214 220 227 238 249 262 272 279 287 294 296 291 286 288 293 297 301 304 308 311 312 313 313 313 314 314 316 317 318 321 325 328 329 324 316 312 315 315 307 303 307 306 298 289 283 280 276 271 266 263 258 251 245 244 244 242 241 241 241 243 245 246 242 237 233 231 232 235
223 226 230 235 240 243 248 253 254 245 229 220 215 209 205 206 210 216 222 231 243 252 263 273 281 289 291 287 282 282 289 294 298 301 305 309 312 313 314 315 315 317 317 317 318 318 321 325 327 328 323 314 309 313 315 310 307 307 304 299 290 284 281 276 271 267 264 261 257 252 248 246 245 243 242 242 244 246 245 240 236 234 236 238 240
224 228 233 239 244 246 249 252 248 234 220 213 210 207 207 211 213 218 225 233 243 254 264 273 280 284 281 276 276 282 290 294 299 302 306 311 314 315 317 317 318 319 319 319 319 320 322 324 326 326 322 313 308 308 309 306 306 305 302 301 297 288 280 275 271 268 265 262 260 258 255 252 251 250 245 242 242 244 242 239 238 238 238 238 237
225 231 237 241 245 248 248 246 238 225 214 207 206 207 210 215 217 221 227 234 244 255 264 271 276 276 273 271 273 280 287 292 298 302 307 312 315 317 318 319 320 320 319 320 320 321 323 325 325 324 320 313 307 304 303 302 301 301 300 299 297 290 282 278 278 276 271 266 263 263 261 257 256 256 253 246 242 243 245 244 241 240 239 237 234
231 237 243 245 247 248 247 241 230 218 208 203 204 208 212 217 220 224 229 235 243 252 259 266 269 269 268 268 271 277 283 289 295 300 306 311 315 317 318 320 320 320 321 322 322 322 324 325 325 324 319 311 302 300 301 300 298 297 295 293 291 288 284 283 287 288 282 277 273 269 265 259 258 258 257 253 247 246 249 249 246 244 241 237 233
236 240 245 246 246 247 245 236 222 209 203 202 206 210 214 220 223 223 225 230 238 247 255 261 264 266 267 268 272 277 281 286 291 297 304 308 312 315 317 319 320 320 321 322 322 323 325 326 323 322 319 307 298 297 299 300 299 296 292 289 285 284 284 284 285 285 284 284 282 278 272 267 262 257 253 251 249 247 248 249 248 245 242 238 235
240 243 243 241 242 243 237 223 210 202 201 204 208 213 218 222 221 219 222 228 236 245 252 258 263 265 267 270 273 276 280 283 288 294 299 304 309 312 316 318 320 321 321 322 324 326 328 327 322 319 315 306 297 298 301 303 302 301 299 292 284 284 286 286 284 281 279 279 276 275 275 276 274 267 258 253 251 248 245 245 246 246 243 241 239
239 239 238 235 236 236 224 208 201 200 203 207 211 217 221 223 221 219 225 232 239 246 253 258 263 266 267 270 272 275 279 282 286 290 294 300 305 310 315 318 321 322 323 324 326 327 329 328 320 312 306 301 303 311 313 313 312 312 309 299 291 289 288 287 286 284 281 280 277 277 280 280 279 275 267 260 257 254 249 245 244 245 245 243 243
223 225 232 233 232 227 213 202 200 202 207 211 214 219 221 224 226 227 231 237 241 248 254 258 262 265 266 268 271 274 277 281 284 287 291 297 303 309 314 317 321 324 326 327 328 329 332 331 319 313 314 311 317 327 328 331 332 330 325 312 301 296 293 289 287 285 285 287 288 288 286 283 280 277 272 267 263 260 258 253 247 245 246 244 241
218 222 229 227 225 220 211 205 204 206 210 212 215 222 224 227 231 233 235 238 242 249 255 258 260 263 265 267 269 272 275 278 281 284 289 295 302 308 313 318 323 326 328 329 330 330 335 333 324 334 342 330 329 337 344 353 355 349 347 339 325 315 307 298 292 291 290 287 283 282 281 277 274 275 274 271 265 259 258 257 252 247 244 242 237
223 225 231 229 223 215 209 207 208 210 213 214 219 225 224 223 227 230 233 237 241 248 253 257 261 263 265 266 268 270 272 275 278 282 287 294 301 307 313 317 323 327 327 331 333 331 333 333 332 6 36 329 334 348 354 355 354 351 349 348 346 340 329 317 311 305 292 276 274 276 276 272 270 273 274 270 266 262 258 258 257 251 244 239 237
225 230 240 237 222 205 202 207 209 212 213 215 218 220 218 219 223 227 234 240 243 247 252 256 261 263 265 265 266 268 270 272 275 279 285 293 300 306 312 318 325 330 330 332 333 329 324 322 319 295 237 275 306 315 328 339 344 345 347 350 352 349 342 336 326 304 267 280 297 287 274 277 281 282 277 267 260 262 263 263 265 260 250 242 238
224 229 232 226 209 196 198 201 198 198 199 204 212 214 217 224 229 234 243 249 250 252 254 256 258 260 262 263 264 266 267 268 271 277 285 294 301 307 315 323 330 334 334 332 332 330 322 311 299 285 272 272 283 298 318 336 346 351 356 2 7 6 3 4 358 330 305 333 336 318 282 280 282 274 275 265 252 254 267 275 274 269 258 245 241
211 212 212 208 199 190 184 176 172 180 189 199 209 215 221 232 243 251 257 260 261 262 261 260 261 260 259 261 262 263 264 265 269 276 285 295 304 312 320 328 334 336 335 335 338 340 335 323 310 298 292 293 303 313 327 351 8 10 11 14 18 18 14 13 13 8 359 350 353 355 335 320 323 184 303 305 256 233 57 22 301 277 261 246 242
196 195 199 200 189 175 164 158 162 173 184 195 204 211 227 243 252 260 265 267 270 271 269 268 267 263 260 259 259 259 259 262 268 277 287 297 306 313 321 330 336 336 335 338 346 350 346 341 336 332 331 334 339 345 358 15 19 16 15 18 21 15 9 14 24 29 31 23 19 30 47 60 65 74 37 13 333 154 83 77 85 92 191 199 185
192 190 193 190 179 168 159 152 155 165 177 192 207 225 247 262 268 272 275 276 277 278 276 273 269 265 261 255 251 251 253 259 270 279 286 292 295 306 321 329 332 336 336 339 345 350 352 356 6 15 15 5 359 3 12 15 15 15 21 27 26 14 12 24 32 37 41 42 48 63 79 75 59 37 8 5 357 326 316 316 0 40 71 151 140
191 188 189 186 176 167 161 157 160 174 193 211 230 249 265 276 282 283 285 285 284 283 279 272 265 259 252 245 241 242 247 256 265 272 276 276 281 302 323 326 328 334 337 338 341 346 353 6 20 27 23 10 4 9 17 19 21 27 36 41 38 34 37 41 39 31 26 31 52 64 53 39 35 26 14 7 2 351 335 317 302 307 313 231 218
194 190 189 185 177 172 176 179 184 200 219 233 245 258 266 276 286 291 292 291 283 274 266 258 253 248 242 240 240 242 248 254 257 262 265 266 275 300 320 327 330 333 336 338 337 337 345 1 17 25 25 22 22 23 26 29 29 34 39 38 35 37 40 44 43 32 19 16 20 7 358 2 10 16 14 5 354 347 341 333 321 311 304 293 278
199 195 190 186 185 188 192 196 205 218 234 246 254 260 269 286 300 300 291 281 261 247 241 238 238 239 239 241 245 248 254 258 263 270 272 271 277 293 309 322 330 336 343 345 337 330 340 357 12 21 24 24 24 22 22 23 21 24 26 22 22 27 29 32 34 26 17 16 14 1 353 353 347 340 332 321 315 316 318 319 316 311 308 305 300
194 190 187 189 197 202 203 207 216 228 243 254 260 268 284 302 310 299 275 252 222 212 217 223 227 234 240 245 249 254 261 274 291 294 285 283 290 303 322 340 351 359 7 4 347 336 338 349 7 17 15 10 11 12 11 9 9 14 17 16 20 25 26 29 30 27 24 24 22 19 16 13 6 1 353 335 319 312 313 313 310 307 307 305 302
183 183 188 195 203 209 212 216 224 239 253 258 261 274 295 309 315 293 171 166 165 168 180 210 229 234 236 241 244 249 256 269 346 41 53 42 35 36 35 30 22 20 24 23 16 10 2 2 15 14 4 359 1 8 8 4 8 18 22 23 25 26 27 29 29 32 35 34 30 25 18 12 9 6 3 358 352 345 338 333 328 321 317 315 312
186 186 193 200 206 212 218 222 233 249 259 259 258 276 305 317 316 186 167 160 157 174 208 214 232 211 204 210 212 210 202 165 117 96 85 68 50 33 29 28 20 16 20 25 27 23 15 13 12 1 3 15 18 18 16 13 20 31 34 35 35 32 31 29 31 38 44 41 38 35 27 21 18 14 9 5 1 358 354 349 345 340 334 329 325
185 186 196 207 211 214 220 228 243 258 262 259 266 293 319 322 291 228 215 211 331 340 20 129 151 163 165 166 157 138 121 109 93 82 73 56 34 21 28 29 18 7 7 22 28 18 3 5 17 23 35 39 33 27 32 42 51 53 51 48 46 43 40 40 48 57 56 49 44 42 37 34 32 28 24 20 15 12 10 5 1 358 352 348 343
185 188 197 206 209 213 223 234 249 262 266 272 294 311 320 322 312 310 326 347 23 65 93 108 115 116 106 99 93 83 80 83 83 84 79 63 40 30 30 20 7 1 9 29 34 22 13 33 45 45 47 48 46 53 67 69 68 66 64 63 62 61 60 63 67 64 56 47 44 42 39 38 39 36 31 28 25 23 21 17 13 9 6 4 1
191 193 194 194 197 209 228 236 240 250 263 282 299 307 318 346 350 339 47 94 103 101 92 83 83 85 85 88 90 89 90 93 92 91 86 70 40 25 20 12 6 8 20 38 45 44 53 63 63 60 62 69 76 80 79 75 73 73 72 70 69 66 64 63 64 61 53 46 46 46 45 44 45 42 39 36 34 32 29 24 20 16 13 10 7
194 198 196 193 196 207 225 237 235 239 254 272 282 289 286 231 203 146 127 116 111 107 99 91 91 97 103 105 108 114 114 104 93 87 84 73 48 35 25 13 8 25 52 65 71 76 77 76 76 77 80 83 84 81 78 76 74 72 70 68 65 62 59 58 60 58 51 44 45 47 45 45 45 44 42 41 40 38 35 32 28 24 20 17 13
Height
3128 3129 3130 3132 3133 3134 3135 3135 3136 3137 3138 3139 3140 3140 3141 3142 3143 3144 3145 3146 3147 3148 3149 3150 3151 3153 3154 3154 3155 3155 3156 3156 3156 3155 3155 3154 3153 3152 3152 3152 3153 3152 3150 3150 3149 3148 3148 3147 3146 3145 3143 3142 3141 3140 3139 3138 3138 3138 3138 3137 3136 3135 3135 3135 3134 3134 3134 3134 3135 3136 3137 3137 3137 3138 3140 3141 3142 3143 3144 3145 3146 3146 3146 3146 3146
3127 3128 3130 3131 3132 3133 3134 3135 3136 3137 3137 3138 3139 3139 3140 3141 3142 3143 3145 3146 3147 3147 3148 3150 3151 3152 3153 3154 3155 3155 3155 3155 3155 3154 3154 3153 3152 3152 3152 3152 3151 3150 3149 3149 3148 3147 3146 3145 3144 3143 3142 3141 3140 3139 3138 3137 3136 3136 3135 3135 3134 3133 3132 3132 3131 3131 3131 3132 3132 3133 3133 3133 3134 3135 3136 3138 3139 3140 3141 3143 3143 3144 3144 3144 3144
3125 3127 3129 3130 3131 3132 3133 3134 3135 3136 3137 3138 3138 3139 3140 3141 3142 3143 3144 3146 3147 3148 3148 3149 3151 3152 3153 3154 3154 3155 3155 3154 3154 3153 3152 3151 3151 3151 3151 3151 3150 3148 3147 3147 3147 3146 3145 3144 3142 3141 3140 3139 3138 3138 3137 3136 3135 3134 3133 3133 3132 3131 3131 3130 3129 3129 3128 3129 3129 3129 3130 3130 3130 3131 3133 3135 3136 3137 3138 3140 3141 3141 3142 3142 3142
3124 3126 3127 3129 3130 3131 3132 3133 3134 3135 3136 3137 3138 3138 3139 3141 3142 3143 3144 3146 3147 3148 3149 3150 3151 3151 3152 3153 3153 3154 3154 3154 3153 3152 3151 3150 3150 3151 3151 3150 3150 3148 3147 3146 3146 3145 3143 3142 3141 3139 3138 3137 3136 3135 3135 3134 3133 3133 3132 3131 3130 3130 3129 3129 3127 3126 3125 3126 3126 3126 3127 3127 3127 3128 3130 3132 3133 3134 3135 3137 3138 3139 3140 3140 3140
3123 3125 3126 3128 3129 3130 3131 3132 3133 3134 3135 3136 3137 3138 3139 3140 3141 3143 3144 3145 3147 3148 3149 3149 3150 3151 3152 3152 3153 3153 3153 3153 3152 3151 3150 3149 3149 3150 3150 3149 3149 3148 3147 3146 3144 3143 3141 3140 3138 3137 3136 3135 3134 3133 3133 3132 3131 3130 3130 3129 3128 3128 3127 3126 3125 3123 3123 3123 3124 3124 3124 3124 3124 3126 3127 3129 3130 3131 3133 3134 3135 3136 3137 3138 3137
3123 3124 3125 3126 3127 3129 3130 3131 3132 3133 3134 3135 3136 3137 3138 3139 3141 3142 3143 3145 3146 3147 3148 3149 3150 3151 3151 3151 3152 3152 3152 3152 3151 3150 3149 3148 3148 3148 3148 3148 3147 3146 3145 3144 3142 3141 3139 3138 3136 3135 3134 3133 3132 3131 3130 3130 3129 3128 3127 3126 3126 3125 3124 3123 3123 3122 3122 3121 3121 3121 3122 3122 3122 3123 3124 3125 3127 3128 3129 3131 3132 3133 3134 3134 3135
3121 3123 3124 3125 3126 3127 3128 3129 3130 3131 3133 3134 3135 3136 3137 3139 3140 3141 3143 3144 3145 3147 3148 3149 3149 3150 3150 3150 3151 3151 3151 3150 3150 3149 3148 3146 3146 3146 3146 3146 3145 3144 3144 3142 3141 3139 3137 3135 3134 3133 3132 3131 3130 3129 3128 3127 3126 3125 3124 3123 3123 3122 3121 3121 3120 3120 3119 3119 3118 3118 3119 3119 3120 3120 3121 3122 3123 3125 3126 3127 3129 3130 3130 3131 3132
3119 3121 3122 3123 3124 3125 3126 3127 3128 3129 3130 3132 3134 3135 3137 3138 3139 3140 3142 3143 3144 3146 3147 3148 3148 3149 3149 3149 3150 3150 3150 3149 3148 3147 3146 3145 3144 3144 3144 3143 3142 3142 3141 3140 3138 3137 3135 3133 3132 3131 3130 3129 3128 3127 3125 3125 3124 3123 3122 3121 3120 3119 3118 3118 3118 3117 3116 3116 3115 3115 3115 3116 3117 3118 3118 3119 3120 3122 3123 3124 3125 3126 3127 3128 3130
3118 3120 3120 3121 3121 3122 3123 3124 3125 3126 3128 3130 3132 3134 3135 3136 3138 3139 3140 3142 3143 3144 3145 3146 3147 3147 3148 3148 3148 3148 3148 3147 3147 3145 3144 3143 3142 3141 3141 3140 3139 3139 3138 3136 3135 3134 3132 3131 3130 3129 3128 3127 3125 3124 3123 3122 3121 3120 3119 3117 3116 3115 3114 3114 3114 3114 3113 3113 3113 3112 3112 3113 3114 3115 3115 3116 3118 3119 3120 3121 3123 3123 3124 3126 3127
3117 3118 3119 3119 3119 3119 3120 3121 3122 3124 3126 3128 3130 3132 3134 3135 3136 3138 3139 3140 3141 3142 3143 3144 3145 3146 3146 3146 3147 3146 3146 3145 3144 3143 3142 3140 3139 3138 3138 3138 3136 3136 3135 3134 3132 3131 3129 3128 3127 3126 3125 3124 3122 3121 3119 3118 3117 3116 3115 3114 3112 3112 3111 3110 3110 3110 3110 3110 3110 3110 3109 3110 3111 3111 3112 3113 3115 3116 3117 3119 3120 3121 3123 3124 3126
3115 3116 3116 3116 3116 3116 3116 3117 3119 3121 3124 3126 3128 3130 3132 3134 3135 3136 3138 3139 3140 3141 3142 3143 3144 3144 3144 3144 3144 3144 3143 3142 3141 3140 3139 3138 3137 3135 3135 3134 3133 3132 3132 3131 3129 3128 3126 3125 3124 3122 3121 3120 3119 3117 3115 3114 3113 3111 3110 3110 3109 3108 3107 3107 3106 3107 3107 3106 3106 3107 3107 3107 3107 3107 3109 3110 3112 3114 3115 3117 3118 3119 3121 3122 3123
3113 3113 3113 3114 3117 3118 3119 3120 3120 3120 3122 3125 3126 3128 3131 3132 3134 3135 3137 3138 3139 3140 3140 3141 3142 3142 3142 3142 3141 3141 3141 3140 3139 3138 3137 3136 3135 3133 3132 3131 3130 3129 3128 3127 3126 3125 3123 3121 3119 3118 3117 3116 3114 3112 3111 3110 3109 3107 3106 3105 3105 3104 3103 3102 3102 3102 3103 3103 3103 3103 3103 3104 3103 3103 3104 3106 3108 3111 3113 3114 3116 3117 3118 3119 3121
3111 3111 3112 3114 3118 3119 3120 3123 3122 3120 3121 3124 3125 3127 3129 3131 3133 3134 3135 3136 3137 3138 3139 3139 3140 3140 3140 3140 3139 3139 3139 3138 3137 3136 3135 3134 3133 3131 3129 3128 3127 3125 3124 3123 3123 3121 3119 3117 3115 3114 3112 3111 3109 3108 3106 3105 3104 3102 3101 3101 3100 3100 3099 3099 3098 3098 3099 3100 3099 3099 3100 3100 3099 3099 3100 3102 3104 3107 3109 3111 3113 3114 3115 3117 3118
3108 3109 3111 3114 3116 3117 3118 3120 3121 3120 3121 3123 3124 3126 3127 3129 3131 3132 3134 3135 3136 3137 3137 3138 3138 3138 3138 3138 3138 3137 3137 3136 3135 3134 3133 3132 3131 3129 3128 3126 3124 3123 3121 3120 3119 3118 3117 3114 3112 3111 3108 3107 3105 3103 3102 3100 3099 3097 3096 3095 3095 3096 3096 3095 3095 3095 3096 3097 3096 3096 3096 3096 3096 3096 3097 3098 3101 3103 3105 3107 3109 3111 3112 3113 3115
3107 3108 3111 3113 3114 3115 3116 3117 3118 3119 3121 3122 3123 3125 3126 3128 3129 3131 3132 3133 3134 3135 3135 3136 3136 3136 3136 3135 3135 3135 3134 3134 3133 3132 3131 3130 3129 3127 3126 3124 3122 3121 3119 3118 3117 3115 3114 3112 3110 3108 3106 3103 3101 3100 3097 3095 3094 3092 3090 3090 3090 3091 3091 3092 3093 3093 3093 3093 3093 3093 3093 3092 3092 3092 3093 3095 3098 3100 3102 3104 3106 3108 3109 3111 3113
3106 3108 3110 3113 3113 3114 3114 3115 3117 3118 3119 3120 3122 3123 3125 3126 3128 3129 3130 3132 3133 3133 3134 3134 3134 3134 3134 3133 3133 3133 3132 3132 3131 3130 3129 3128 3127 3125 3124 3122 3120 3119 3118 3116 3115 3113 3111 3109 3107 3105 3103 3100 3098 3096 3093 3091 3089 3087 3086 3085 3085 3086 3087 3088 3090 3090 3090 3090 3090 3090 3090 3089 3089 3089 3091 3093 3095 3097 3099 3101 3103 3105 3107 3109 3111
3105 3107 3109 3111 3113 3114 3115 3115 3116 3117 3117 3119 3120 3122 3124 3125 3126 3128 3129 3130 3131 3131 3132 3132 3132 3132 3132 3132 3131 3131 3130 3130 3129 3128 3127 3126 3125 3123 3122 3120 3118 3117 3116 3114 3112 3110 3108 3106 3104 3102 3100 3097 3095 3093 3090 3088 3086 3084 3083 3082 3083 3084 3084 3086 3087 3087 3087 3087 3087 3088 3088 3087 3086 3087 3089 3091 3093 3095 3096 3098 3100 3103 3105 3107 3108
3104 3106 3108 3110 3111 3112 3114 3114 3114 3115 3116 3117 3119 3121 3122 3124 3125 3126 3127 3128 3129 3129 3130 3130 3130 3130 3130 3130 3129 3129 3129 3128 3127 3126 3125 3124 3123 3121 3119 3118 3116 3115 3114 3112 3110 3108 3106 3104 3102 3099 3097 3095 3092 3090 3088 3086 3084 3082 3081 3081 3082 3082 3083 3084 3085 3085 3085 3085 3084 3085 3085 3084 3084 3086 3087 3089 3091 3093 3094 3096 3099 3101 3103 3104 3106
3102 3105 3107 3108 3109 3111 3112 3113 3113 3113 3114 3116 3117 3119 3121 3123 3124 3125 3125 3126 3127 3128 3128 3128 3129 3129 3128 3128 3128 3127 3127 3126 3125 3124 3123 3122 3121 3119 3118 3116 3115 3113 3111 3110 3108 3106 3104 3102 3099 3097 3094 3092 3090 3088 3086 3085 3083 3082 3081 3080 3081 3081 3082 3083 3083 3083 3084 3083 3083 3084 3083 3083 3082 3083 3086 3088 3089 3091 3093 3094 3096 3098 3100 3102 3104
3100 3103 3106 3107 3108 3109 3111 3112 3112 3113 3113 3114 3116 3118 3120 3121 3122 3123 3124 3125 3125 3126 3127 3127 3127 3127 3126 3126 3126 3125 3125 3124 3123 3122 3121 3120 3119 3118 3116 3115 3113 3111 3110 3108 3106 3104 3102 3100 3098 3095 3092 3090 3088 3086 3085 3084 3083 3081 3080 3080 3080 3080 3081 3082 3082 3082 3082 3082 3081 3082 3082 3082 3082 3082 3084 3086 3088 3090 3091 3093 3094 3096 3097 3100 3102
3098 3102 3104 3105 3107 3108 3109 3110 3111 3112 3112 3114 3115 3117 3118 3119 3120 3121 3122 3123 3124 3125 3125 3125 3125 3125 3125 3124 3124 3124 3123 3122 3121 3120 3119 3119 3117 3116 3115 3113 3112 3110 3108 3106 3105 3102 3100 3098 3096 3093 3090 3088 3087 3085 3084 3083 3081 3080 3080 3079 3079 3079 3080 3080 3080 3080 3081 3080 3080 3080 3080 3081 3082 3082 3083 3085 3086 3088 3090 3091 3093 3094 3095 3098 3100
3097 3100 3102 3104 3105 3106 3107 3109 3110 3111 3112 3113 3114 3115 3116 3117 3118 3120 3121 3122 3123 3123 3123 3124 3124 3124 3123 3123 3123 3122 3121 3121 3120 3119 3118 3117 3116 3115 3113 3112 3110 3109 3107 3105 3103 3101 3098 3096 3094 3091 3088 3086 3085 3084 3083 3082 3080 3079 3078 3078 3078 3078 3078 3079 3079 3079 3080 3079 3078 3078 3079 3079 3080 3081 3082 3084 3085 3087 3088 3090 3091 3092 3094 3096 3097
3096 3098 3100 3102 3103 3105 3106 3108 3109 3110 3111 3112 3112 3113 3114 3116 3117 3119 3120 3121 3121 3121 3122 3122 3122 3122 3122 3122 3121 3120 3120 3119 3118 3117 3117 3116 3115 3113 3112 3110 3109 3107 3105 3103 3101 3099 3096 3094 3092 3089 3087 3085 3084 3083 3082 3081 3079 3078 3077 3077 3076 3077 3076 3077 3077 3078 3078 3078 3077 3077 3077 3078 3078 3079 3080 3082 3083 3085 3086 3088 3089 3090 3092 3093 3095
3095 3096 3098 3100 3101 3103 3105 3107 3108 3108 3109 3110 3111 3112 3113 3114 3116 3118 3118 3119 3119 3120 3120 3120 3121 3121 3121 3120 3119 3119 3118 3118 3117 3116 3115 3115 3113 3112 3110 3108 3107 3106 3104 3101 3099 3097 3095 3093 3091 3088 3086 3084 3082 3082 3081 3080 3079 3077 3076 3076 3076 3076 3075 3075 3075 3076 3076 3076 3076 3075 3076 3076 3077 3078 3079 3080 3082 3083 3084 3086 3087 3088 3090 3091 3094
3093 3094 3096 3098 3100 3102 3103 3105 3106 3106 3108 3108 3109 3111 3112 3113 3115 3116 3117 3117 3118 3118 3118 3119 3119 3119 3119 3119 3118 3117 3117 3116 3116 3115 3114 3113 3112 3110 3109 3107 3106 3104 3102 3100 3098 3095 3093 3091 3089 3087 3085 3083 3081 3081 3080 3079 3078 3077 3076 3076 3076 3076 3075 3075 3074 3074 3074 3075 3074 3074 3074 3075 3075 3076 3077 3079 3080 3081 3082 3084 3085 3086 3088 3090 3092
3091 3093 3095 3097 3099 3100 3101 3103 3104 3105 3106 3107 3108 3110 3111 3112 3113 3114 3115 3115 3116 3117 3117 3118 3118 3117 3117 3117 3117 3116 3116 3115 3115 3114 3113 3112 3110 3109 3108 3106 3105 3103 3101 3098 3096 3094 3092 3090 3088 3086 3084 3082 3081 3080 3080 3079 3077 3077 3076 3075 3075 3075 3074 3074 3073 3073 3073 3073 3073 3073 3073 3074 3074 3075 3077 3078 3079 3080 3081 3082 3083 3084 3086 3087 3089
3090 3092 3094 3095 3096 3098 3099 3101 3102 3103 3104 3105 3107 3109 3110 3111 3112 3113 3113 3114 3114 3115 3116 3116 3116 3116 3116 3116 3116 3115 3115 3114 3113 3113 3112 3111 3109 3108 3106 3105 3103 3101 3099 3097 3095 3093 3091 3089 3087 3085 3083 3082 3081 3080 3079 3078 3077 3076 3075 3074 3074 3074 3073 3073 3072 3072 3072 3072 3071 3071 3071 3072 3073 3074 3075 3077 3077 3078 3080 3081 3082 3083 3084 3085 3087
3088 3090 3092 3094 3095 3096 3098 3099 3100 3101 3103 3104 3106 3108 3109 3110 3111 3111 3112 3112 3113 3114 3114 3115 3115 3114 3114 3114 3114 3114 3114 3113 3112 3112 3111 3110 3108 3107 3105 3103 3101 3100 3098 3096 3094 3092 3090 3088 3086 3084 3083 3081 3080 3079 3078 3077 3077 3076 3074 3074 3074 3073 3073 3072 3071 3071 3071 3070 3070 3070 3070 3071 3072 3073 3074 3075 3075 3076 3077 3079 3080 3082 3083 3083 3084
3087 3089 3091 3093 3094 3095 3096 3097 3098 3100 3102 3104 3106 3107 3108 3109 3109 3110 3111 3111 3112 3112 3113 3113 3113 3113 3113 3113 3113 3113 3113 3112 3111 3111 3110 3108 3107 3106 3104 3102 3100 3098 3096 3094 3092 3091 3089 3087 3085 3084 3082 3081 3080 3079 3078 3077 3076 3075 3074 3073 3073 3073 3072 3072 3071 3070 3070 3069 3069 3069 3070 3071 3071 3072 3072 3073 3074 3074 3075 3077 3078 3079 3080 3081 3082
3085 3088 3089 3090 3091 3092 3093 3095 3097 3099 3102 3104 3105 3106 3107 3107 3107 3108 3109 3110 3110 3111 3111 3112 3112 3112 3112 3112 3112 3111 3111 3111 3110 3109 3108 3107 3106 3105 3103 3101 3099 3097 3095 3093 3091 3090 3088 3086 3084 3083 3081 3080 3079 3078 3077 3076 3075 3074 3073 3072 3072 3072 3071 3071 3070 3070 3069 3069 3069 3069 3069 3070 3070 3071 3071 3071 3072 3073 3074 3074 3075 3076 3077 3078 3079
3085 3086 3087 3088 3088 3089 3091 3093 3096 3098 3101 3103 3104 3105 3105 3105 3106 3107 3108 3108 3109 3109 3110 3110 3110 3110 3110 3110 3110 3110 3110 3109 3109 3108 3107 3106 3105 3103 3102 3100 3098 3096 3094 3092 3090 3089 3087 3085 3083 3082 3081 3079 3078 3077 3076 3075 3074 3073 3072 3071 3071 3071 3070 3070 3070 3069 3068 3068 3068 3068 3068 3068 3069 3070 3069 3069 3069 3071 3072 3072 3073 3074 3075 3076 3077
3083 3084 3084 3085 3086 3087 3090 3092 3095 3098 3100 3102 3103 3103 3103 3104 3105 3106 3106 3107 3107 3108 3108 3108 3108 3109 3109 3109 3108 3108 3108 3108 3107 3107 3106 3105 3103 3102 3101 3099 3097 3095 3093 3091 3089 3087 3086 3084 3083 3081 3080 3078 3077 3076 3075 3074 3073 3072 3072 3071 3071 3070 3070 3069 3069 3068 3067 3067 3067 3067 3067 3067 3068 3068 3067 3067 3068 3069 3070 3071 3071 3072 3072 3073 3075
3081 3082 3083 3084 3085 3087 3089 3091 3094 3096 3098 3100 3101 3101 3102 3102 3103 3104 3104 3105 3105 3106 3106 3106 3107 3107 3107 3107 3107 3107 3106 3106 3106 3105 3104 3103 3102 3101 3099 3098 3096 3094 3092 3090 3088 3086 3085 3084 3082 3080 3079 3078 3077 3076 3075 3074 3073 3072 3072 3071 3070 3070 3069 3068 3068 3067 3067 3066 3066 3066 3066 3066 3066 3066 3066 3066 3066 3067 3068 3068 3069 3069 3070 3071 3072
3080 3080 3081 3083 3085 3086 3089 3091 3093 3095 3097 3099 3100 3100 3100 3101 3102 3102 3103 3103 3103 3104 3104 3105 3105 3105 3105 3105 3105 3105 3105 3104 3104 3103 3103 3102 3101 3099 3098 3097 3095 3093 3091 3089 3087 3085 3084 3083 3081 3080 3078 3077 3077 3076 3075 3074 3073 3072 3071 3070 3070 3069 3068 3068 3067 3067 3066 3066 3065 3065 3065 3065 3065 3065 3065 3065 3065 3066 3066 3066 3067 3067 3068 3069 3070
3078 3079 3080 3082 3084 3086 3088 3090 3092 3094 3096 3097 3098 3099 3099 3100 3100 3101 3101 3101 3102 3102 3103 3103 3104 3104 3104 3104 3104 3103 3103 3103 3102 3102 3101 3100 3099 3098 3097 3095 3094 3092 3091 3089 3087 3085 3084 3082 3081 3080 3078 3077 3077 3076 3075 3074 3073 3072 3071 3070 3069 3068 3068 3067 3066 3066 3065 3065 3065 3064 3064 3064 3064 3064 3064 3064 3064 3064 3064 3064 3065 3066 3066 3067 3068
3077 3078 3080 3082 3084 3086 3088 3090 3091 3093 3095 3096 3097 3097 3098 3098 3099 3099 3100 3100 3100 3101 3101 3102 3102 3102 3102 3102 3102 3102 3101 3101 3100 3100 3099 3098 3097 3097 3095 3094 3093 3091 3090 3089 3087 3085 3084 3082 3081 3080 3079 3078 3077 3076 3075 3074 3073 3072 3070 3069 3068 3068 3067 3066 3065 3064 3064 3063 3063 3063 3063 3063 3063 3063 3063 3063 3063 3063 3063 3063 3063 3064 3064 3065 3066
3077 3078 3079 3081 3083 3085 3087 3089 3091 3093 3095 3095 3096 3096 3096 3097 3097 3098 3098 3099 3099 3099 3100 3100 3100 3101 3101 3101 3100 3100 3100 3099 3099 3098 3098 3097 3096 3095 3094 3093 3092 3090 3089 3088 3087 3085 3084 3083 3082 3081 3080 3079 3078 3077 3076 3075 3073 3072 3070 3069 3068 3067 3066 3065 3064 3063 3063 3063 3063 3063 3062 3062 3062 3062 3062 3061 3061 3061 3061 3062 3062 3062 3063 3064 3065
3076 3078 3078 3080 3082 3084 3086 3089 3091 3093 3093 3094 3094 3094 3095 3095 3096 3096 3097 3097 3098 3098 3098 3098 3099 3099 3099 3099 3099 3099 3098 3098 3097 3097 3096 3095 3094 3094 3093 3092 3090 3089 3088 3087 3086 3085 3084 3083 3082 3081 3080 3079 3078 3077 3076 3075 3074 3072 3071 3070 3068 3067 3066 3064 3063 3063 3064 3063 3062 3062 3062 3061 3061 3061 3060 3060 3060 3060 3061 3061 3062 3062 3062 3063 3064
3075 3077 3078 3080 3082 3084 3086 3089 3090 3091 3092 3092 3093 3093 3094 3094 3095 3095 3095 3096 3096 3097 3097 3097 3097 3097 3097 3098 3098 3098 3097 3097 3096 3096 3095 3094 3093 3092 3092 3091 3090 3089 3088 3086 3085 3084 3084 3083 3082 3081 3080 3079 3078 3077 3077 3076 3074 3073 3072 3070 3069 3067 3066 3065 3064 3064 3064 3063 3062 3061 3061 3061 3061 3060 3060 3060 3060 3061 3061 3061 3061 3062 3062 3062 3064
3073 3076 3078 3080 3082 3084 3087 3088 3089 3090 3090 3091 3091 3092 3092 3093 3093 3094 3094 3095 3095 3095 3095 3095 3095 3096 3096 3096 3097 3096 3096 3096 3095 3095 3094 3093 3092 3092 3091 3090 3089 3088 3087 3086 3085 3084 3083 3082 3081 3080 3079 3078 3078 3077 3076 3075 3074 3073 3072 3071 3070 3069 3067 3066 3065 3064 3064 3063 3062 3061 3061 3062 3062 3062 3061 3061 3061 3062 3062 3061 3061 3061 3061 3062 3063
3074 3076 3078 3080 3082 3084 3086 3087 3088 3089 3089 3090 3090 3090 3091 3092 3092 3093 3093 3093 3093 3094 3094 3094 3094 3094 3095 3095 3095 3095 3095 3094 3094 3094 3093 3092 3092 3091 3090 3089 3089 3088 3087 3086 3085 3084 3083 3082 3081 3080 3080 3079 3078 3077 3076 3075 3075 3074 3073 3071 3070 3070 3068 3066 3066 3065 3065 3064 3063 3062 3062 3063 3063 3063 3063 3063 3063 3063 3063 3063 3062 3062 3062 3062 3063
3073 3076 3078 3080 3082 3084 3085 3086 3087 3088 3088 3089 3089 3090 3090 3091 3092 3092 3092 3092 3092 3092 3092 3093 3093 3093 3093 3094 3094 3094 3094 3093 3093 3093 3092 3092 3091 3091 3090 3089 3088 3087 3087 3086 3085 3084 3083 3082 3082 3081 3080 3080 3079 3078 3077 3076 3075 3074 3073 3072 3071 3070 3069 3068 3067 3066 3066 3065 3064 3064 3063 3063 3063 3063 3064 3064 3064 3064 3064 3064 3063 3063 3064 3064 3064
3073 3075 3077 3080 3082 3083 3084 3085 3086 3087 3087 3088 3089 3090 3090 3091 3091 3091 3091 3091 3091 3091 3091 3092 3092 3092 3093 3093 3093 3093 3092 3092 3092 3092 3091 3091 3090 3090 3090 3089 3088 3087 3087 3086 3085 3084 3084 3083 3082 3082 3081 3080 3079 3078 3077 3076 3075 3075 3074 3073 3072 3071 3070 3069 3068 3067 3067 3066 3065 3065 3064 3064 3064 3064 3064 3064 3064 3064 3064 3064 3064 3064 3064 3064 3064
3072 3074 3077 3079 3081 3082 3084 3085 3085 3086 3087 3088 3089 3089 3090 3090 3090 3090 3090 3090 3090 3090 3091 3091 3091 3091 3092 3092 3092 3092 3091 3091 3091 3091 3091 3090 3090 3090 3089 3089 3088 3087 3086 3086 3085 3085 3084 3083 3083 3082 3082 3081 3080 3079 3078 3077 3076 3075 3075 3074 3073 3072 3071 3070 3069 3068 3067 3067 3066 3065 3065 3065 3064 3064 3064 3064 3063 3063 3063 3063 3063 3063 3063 3063 3063
3072 3074 3077 3079 3080 3081 3082 3084 3085 3086 3086 3087 3088 3088 3088 3089 3089 3089 3089 3089 3090 3090 3090 3090 3090 3091 3091 3091 3091 3091 3091 3091 3091 3091 3090 3090 3090 3089 3089 3088 3088 3087 3087 3086 3085 3085 3084 3084 3083 3083 3082 3081 3080 3079 3078 3077 3076 3076 3075 3074 3073 3072 3071 3071 3070 3069 3068 3067 3066 3066 3065 3065 3065 3064 3064 3064 3064 3063 3063 3063 3062 3062 3062 3062 3063
3072 3074 3076 3078 3079 3080 3081 3083 3084 3085 3086 3086 3087 3087 3087 3088 3088 3088 3089 3089 3089 3089 3089 3090 3090 3090 3090 3090 3091 3091 3091 3090 3090 3090 3090 3089 3089 3089 3088 3088 3088 3087 3086 3086 3085 3085 3084 3083 3083 3082 3082 3081 3080 3079 3078 3078 3077 3076 3075 3074 3074 3073 3072 3071 3070 3069 3068 3068 3067 3066 3066 3065 3065 3065 3064 3064 3063 3063 3063 3062 3062 3062 3062 3062 3062
3071 3073 3075 3076 3078 3079 3081 3082 3083 3084 3085 3085 3086 3086 3087 3087 3087 3088 3088 3088 3088 3089 3089 3089 3089 3090 3090 3090 3090 3090 3090 3090 3090 3089 3089 3089 3089 3088 3088 3088 3087 3087 3086 3086 3085 3085 3084 3083 3083 3082 3082 3081 3080 3080 3079 3078 3077 3077 3076 3075 3074 3073 3072 3072 3071 3070 3070 3069 3068 3068 3067 3067 3066 3065 3064 3064 3063 3063 3062 3062 3062 3062 3061 3061 3061
3070 3072 3074 3075 3077 3079 3080 3082 3082 3083 3083 3084 3085 3085 3086 3086 3087 3087 3087 3087 3088 3088 3089 3089 3089 3089 3089 3090 3090 3090 3089 3089 3089 3089 3089 3089 3089 3088 3088 3087 3087 3087 3086 3086 3085 3085 3085 3084 3084 3083 3082 3081 3081 3080 3080 3079 3078 3077 3077 3076 3075 3074 3074 3073 3073 3072 3071 3070 3070 3069 3068 3067 3067 3066 3065 3064 3064 3063 3062 3062 3061 3061 3060 3060 3060
3069 3071 3073 3075 3077 3078 3080 3081 3081 3082 3082 3083 3083 3084 3085 3085 3086 3086 3086 3087 3087 3088 3088 3089 3089 3089 3089 3089 3089 3089 3089 3089 3089 3089 3089 3089 3089 3088 3088 3088 3087 3087 3087 3086 3086 3086 3085 3085 3084 3084 3083 3083 3082 3082 3081 3080 3079 3079 3078 3078 3077 3077 3076 3075 3074 3073 3072 3072 3071 3071 3070 3069 3068 3067 3066 3065 3064 3064 3063 3062 3061 3060 3060 3059 3059
3068 3070 3072 3074 3076 3078 3079 3080 3081 3081 3081 3082 3082 3083 3084 3085 3085 3085 3086 3086 3087 3088 3088 3088 3089 3089 3089 3089 3089 3089 3089 3089 3089 3089 3089 3089 3089 3088 3088 3088 3088 3088 3087 3087 3086 3086 3086 3085 3085 3085 3084 3084 3084 3083 3082 3081 3081 3081 3080 3080 3079 3078 3078 3077 3075 3074 3074 3074 3074 3073 3072 3071 3070 3069 3068 3067 3066 3065 3064 3063 3062 3061 3060 3060 3059
3067 3069 3071 3073 3075 3077 3078 3080 3080 3081 3081 3081 3082 3082 3083 3084 3085 3085 3085 3086 3087 3087 3088 3089 3089 3089 3089 3089 3089 3089 3090 3090 3090 3090 3089 3089 3089 3089 3089 3089 3088 3088 3088 3087 3087 3087 3086 3086 3086 3086 3086 3086 3085 3085 3084 3084 3083 3083 3082 3081 3081 3080 3079 3078 3077 3076 3076 3077 3076 3074 3073 3072 3071 3070 3069 3068 3067 3066 3065 3064 3063 3062 3061 3060 3059